Change the Weather History Date:

Wednesday, January 23, 2013

  Actual Average Record
Temperature  
Mean Temperature 34 °F -  
Max Temperature 36 °F 46 °F 55 °F (2008)
Min Temperature 33 °F 35 °F 17 °F (2015)
Degree Days  
Heating Degree Days 30    
Moisture  
Dew Point 31 °F    
Average Humidity 82    
Maximum Humidity 87    
Minimum Humidity 73    
Precipitation  
Precipitation 0.02 in - - ()
Sea Level Pressure  
Sea Level Pressure 29.76 in    
Wind  
Wind Speed 9 mph ()    
Max Wind Speed 14 mph    
Max Gust Speed -    
Visibility 4.2 miles    
Events Rain , Snow    
Averages and records for this station are not official NWS values.
T = Trace of Precipitation, MM = Missing Value Source: Averaged Metar Reports

Daily Weather History Graph

Daily Weather History Graph

Search for Another Location

Airport or City:

Trip Planner

Search our weather history database for the weather conditions in past years. The results will help you decide how hot, cold, wet, or windy it might be!

Date:

Astronomy

Jan. 23, 2013 Rise Set
Actual Time 7:52 AM GMT 4:35 PM GMT
Civil Twilight 7:14 AM GMT 5:13 PM GMT
Nautical Twilight 6:33 AM GMT 5:54 PM GMT
Astronomical Twilight 5:54 AM GMT 6:33 PM GMT
Moon 1:27 PM GMT (1/23) 4:57 AM GMT (1/23)
Length of Visible Light 9h 58m
Length of Day
8h 43m
Waxing Gibbous, 88% of the Moon is Illuminated
Jan 23
Waxing Gibbous
Jan 27
Full
Feb 3
Last Quarter
Feb 10
New
Feb 17
First Quarter

Hourly Weather History & Observations

Time (GMT) Temp. Windchill Dew Point Humidity Pressure Visibility Wind Dir Wind Speed Gust Speed Precip Events Conditions
12:20 AM 37.4 °F 30.8 °F 30.2 °F 75% 29.68 in 4.3 mi ENE 9.2 mph - N/A Rain , Snow Light Rain
12:50 AM 35.6 °F 28.0 °F 32.0 °F 87% 29.68 in 3.7 mi ENE 10.4 mph - N/A Rain , Snow Light Rain
1:20 AM 35.6 °F 28.0 °F 32.0 °F 87% 29.71 in 3.7 mi ENE 10.4 mph - N/A   Mostly Cloudy
1:50 AM 35.6 °F 28.0 °F 30.2 °F 81% 29.71 in 3.7 mi ENE 10.4 mph - N/A   Light Drizzle
2:20 AM 35.6 °F 28.6 °F 30.2 °F 81% 29.71 in 3.7 mi ENE 9.2 mph - N/A Rain Light Rain
2:50 AM 36 °F - 31 °F 75% 29.73 in 5 mi ENE 9.2 mph - - Rain Rain
2:50 AM 35.6 °F 28.0 °F 30.2 °F 81% 29.71 in 4.3 mi ENE 10.4 mph - N/A   Mostly Cloudy
3:20 AM 35.6 °F 28.0 °F 30.2 °F 81% 29.71 in 4.3 mi ENE 10.4 mph - N/A   Mostly Cloudy
3:50 AM 35.6 °F 28.0 °F 30.2 °F 81% 29.71 in 4.3 mi ENE 10.4 mph - N/A   Mostly Cloudy
4:20 AM 35.6 °F 28.6 °F 30.2 °F 81% 29.71 in 4.3 mi ENE 9.2 mph - N/A   Mostly Cloudy
4:50 AM 35.6 °F 29.9 °F 30.2 °F 81% 29.71 in 4.3 mi ENE 6.9 mph - N/A   Mostly Cloudy
5:20 AM 35.6 °F 29.2 °F 30.2 °F 81% 29.71 in 4.3 mi ENE 8.1 mph - N/A   Mostly Cloudy
5:50 AM 35 °F - 31 °F 78% 29.73 in 6 mi NE 8.1 mph - -   Unknown Precipitation
5:50 AM 35.6 °F 29.2 °F 30.2 °F 81% 29.71 in 4.3 mi ENE 8.1 mph - N/A   Mostly Cloudy
6:20 AM 35.6 °F 30.7 °F 30.2 °F 81% 29.74 in 4.3 mi NE 5.8 mph - N/A   Mostly Cloudy
6:50 AM 35.6 °F 29.2 °F 30.2 °F 81% 29.74 in 5.0 mi ENE 8.1 mph - N/A   Mostly Cloudy
7:20 AM 35.6 °F 29.2 °F 30.2 °F 81% 29.74 in 5.6 mi ENE 8.1 mph - N/A   Mostly Cloudy
7:50 AM 33.8 °F 27.0 °F 30.2 °F 87% 29.74 in 4.3 mi ENE 8.1 mph - N/A Snow Light Snow
8:20 AM 33.8 °F 27.7 °F 30.2 °F 87% 29.77 in 5.0 mi ENE 6.9 mph - N/A   Mostly Cloudy
8:50 AM 35 °F - 30 °F 76% 29.78 in 3 mi NE 8.1 mph - - Snow Light Snow Showers
8:50 AM 33.8 °F 27.0 °F 30.2 °F 87% 29.77 in 3.1 mi ENE 8.1 mph - N/A Snow Light Snow
9:20 AM 33.8 °F 27.7 °F 30.2 °F 87% 29.77 in 5.0 mi ENE 6.9 mph - N/A   Mostly Cloudy
9:50 AM 35.6 °F 29.9 °F 30.2 °F 81% 29.77 in 5.0 mi ENE 6.9 mph - N/A   Mostly Cloudy
10:20 AM 35.6 °F 29.2 °F 30.2 °F 81% 29.77 in 4.3 mi ENE 8.1 mph - N/A   Mostly Cloudy
10:50 AM 35.6 °F 28.6 °F 30.2 °F 81% 29.77 in 4.3 mi ENE 9.2 mph - N/A   Overcast
11:20 AM 35.6 °F 28.6 °F 30.2 °F 81% 29.80 in 4.3 mi ENE 9.2 mph - N/A   Mostly Cloudy
11:50 AM 36 °F - 31 °F 73% 29.79 in 5 mi ENE 8.1 mph - -   Light Haze
11:50 AM 35.6 °F 28.6 °F 30.2 °F 81% 29.77 in 4.3 mi ENE 9.2 mph - N/A   Mostly Cloudy
12:20 PM 35.6 °F 29.2 °F 30.2 °F 81% 29.77 in 3.7 mi ENE 8.1 mph - N/A Snow Light Snow Grains
12:50 PM 35.6 °F 28.6 °F 32.0 °F 87% 29.77 in - ENE 9.2 mph - N/A Snow Light Snow
1:20 PM 35.6 °F 28.6 °F 32.0 °F 87% 29.77 in 3.1 mi ENE 9.2 mph - N/A   Mostly Cloudy
1:50 PM 35.6 °F 29.9 °F 32.0 °F 87% 29.77 in 2.8 mi ENE 6.9 mph - N/A   Mostly Cloudy
2:20 PM 35.6 °F 29.9 °F 32.0 °F 87% 29.74 in 3.1 mi ENE 6.9 mph - N/A   Mostly Cloudy
2:50 PM 36 °F - 32 °F 81% 29.77 in 4 mi ENE 8.1 mph - -   Unknown Precipitation
2:50 PM 35.6 °F 29.9 °F 32.0 °F 87% 29.74 in 3.1 mi ENE 6.9 mph - N/A   Mostly Cloudy
3:20 PM 35.6 °F 27.5 °F 32.0 °F 87% 29.77 in 3.1 mi East 11.5 mph - N/A Rain , Snow Light Rain
3:50 PM 35.6 °F 26.6 °F 32.0 °F 87% 29.74 in 4.3 mi East 13.8 mph - N/A Rain Light Rain
4:20 PM 35.6 °F 26.6 °F 30.2 °F 81% 29.74 in 3.1 mi East 13.8 mph - N/A Rain Light Rain
4:50 PM 33.8 °F 25.8 °F 30.2 °F 87% 29.77 in 2.8 mi East 10.4 mph - N/A Rain , Snow Light Rain
5:20 PM 35.6 °F 28.0 °F 30.2 °F 81% 29.77 in 3.1 mi East 10.4 mph - N/A Rain Light Rain
5:50 PM 35 °F - 31 °F 81% 29.77 in 4 mi East 10.4 mph - - Rain Rain
5:50 PM 35.6 °F 27.5 °F 30.2 °F 81% 29.77 in 3.7 mi East 11.5 mph - N/A   Mostly Cloudy
6:20 PM 35.6 °F 28.0 °F 30.2 °F 81% 29.77 in 3.7 mi East 10.4 mph - N/A Rain , Snow Light Rain
6:50 PM 35.6 °F 28.6 °F 30.2 °F 81% 29.77 in 4.3 mi East 9.2 mph - N/A   Mostly Cloudy
7:20 PM 35.6 °F 27.5 °F 30.2 °F 81% 29.77 in 5.0 mi East 11.5 mph - N/A   Mostly Cloudy
7:50 PM 35.6 °F 28.0 °F 30.2 °F 81% 29.77 in 5.0 mi East 10.4 mph - N/A   Mostly Cloudy
8:20 PM 35.6 °F 27.5 °F 28.4 °F 75% 29.77 in 5.6 mi East 11.5 mph - N/A   Mostly Cloudy
8:50 PM 35 °F - 30 °F 74% 29.79 in 6 mi East 11.5 mph - -   Unknown Precipitation
8:50 PM 35.6 °F 27.1 °F 30.2 °F 81% 29.77 in 5.0 mi East 12.7 mph - N/A   Mostly Cloudy
9:20 PM 35.6 °F 27.1 °F 30.2 °F 81% 29.80 in 4.3 mi East 12.7 mph - N/A   Mostly Cloudy
9:50 PM 35.6 °F 27.1 °F 30.2 °F 81% 29.80 in 4.3 mi East 12.7 mph - N/A   Scattered Clouds
10:20 PM 35.6 °F 27.5 °F 30.2 °F 81% 29.80 in 3.7 mi East 11.5 mph - N/A   Overcast
10:50 PM 35.6 °F 27.1 °F 30.2 °F 81% 29.80 in 3.7 mi East 12.7 mph - N/A   Mostly Cloudy
11:20 PM 35.6 °F 27.5 °F 30.2 °F 81% 29.80 in 3.7 mi East 11.5 mph - N/A   Scattered Clouds
11:50 PM 35 °F - 30 °F 74% 29.83 in 5 mi East 13.8 mph - -   Light Haze
11:50 PM 35.6 °F 27.1 °F 30.2 °F 81% 29.83 in 4.3 mi East 12.7 mph - N/A   Mostly Cloudy